User: anonymous
Location: Unspecified
(0.0000°N, 0.0000°E)
Time: 00:13:27
(UTC+00:00)
Language:

OPTUS 1C - Orbit

View from above orbital plane
View from above orbital plane
View from above satellite
View from above satellite

Ground track
Ground track

The orbit data is extracted from the following two-line orbital elements,

1 27831U 03028B   14242.47805382 -.00000156  00000-0  00000+0 0  1921
2 27831 000.0317 216.1751 0004086 301.5750 148.9597 01.00273396 41117
Epoch (UTC): 30 August 2014 11:28:23
Eccentricity: 0.0004086
inclination: 0.0317°
perigee height: 35768 km
apogee height: 35803 km
right ascension of ascending node: 216.1751°
argument of perigee: 301.5750°
revolutions per day: 1.00273396
mean anomaly at epoch: 148.9597°
orbit number at epoch: 4111

The dashed part of the orbit path shows where the satellite is in the earth's shadow,  

DLR